Regional Weather Roundup
Issued by NWS State College, PA

Home | Current Version | Previous Version | Graphics & Text | Print | Product List | Glossary On
Versions: 1 2 3 4 5 6 7 8 9 10 11 12 13 14 15 16 17 18 19 20 21 22 23 24 25 26 27 28 29 30 31 32 33 34 35 36 37 38 39 40 41 42 43 44 45 46 47 48 49 50
000
ASUS41 KCTP 271703
RWRCTP

REGIONAL WEATHER ROUNDUP
NATIONAL WEATHER SERVICE STATE COLLEGE PA
100 PM EDT FRI MAY 27 2016

Note: "fair" indicates few or no clouds below 12,000 feet with no
significant weather and/or obstructions to visibility.

* = STATION THAT DOES NOT REPORT PRECIPITATION /E.G. RAIN...SNOW...ETC/
    THUNDER OR FOG.

PAZ002>004-007>009-013>016-020>023-029>032-271800-
WESTERN PENNSYLVANIA

CITY           SKY/WX    TMP DP  RH WIND       PRES   REMARKS
ERIE           SUNNY     76  63  64 W10       30.04R
MEADVILLE      MOSUNNY   78  62  57 S10       30.06R
FRANKLIN*      PTSUNNY   81  61  50 W10       30.09S
NEW CASTLE     FAIR      82  62  50 SW8G17    30.06F
BEAVER COUNTY  NOT AVBL
BUTLER*        MOSUNNY   81  64  57 SW9       30.10S
PITTSBURGH INT MOSUNNY   82  61  48 SW12G21   30.07S
PITTSBURGH     MOSUNNY   82  62  50 SW9       30.07S
INDIANA*       SUNNY     82  66  57 W10       30.11S
LATROBE        MOSUNNY   82  66  57 SW12      30.09S
WASHINGTON CO* SUNNY     82  64  54 SW6       30.09S
$$

PAZ004>006-010>012-017>019-024>028-033>037-041-042-045-046-049>053-271800-
CENTRAL PENNSYLVANIA

CITY           SKY/WX    TMP DP  RH WIND       PRES   REMARKS
BRADFORD       PTSUNNY   77  58  51 VRB6      30.09S
DUBOIS         MOSUNNY   79  61  53 W8        30.08F
CLEARFIELD     MOSUNNY   81  62  52 SW7       30.08F
JOHNSTOWN      MOSUNNY   79  57  46 SW6       30.13S
ALTOONA        CLOUDY    80  62  54 SE6       30.10S
STATE COLLEGE  NOT AVBL
WILLIAMSPORT   MOSUNNY   84  64  50 VRB3      30.02F
SELINSGROVE    MOSUNNY   85  65  51 SE8       30.04F
FT INDIANTOWN  NOT AVBL
CAPITAL CITY   MOSUNNY   87  66  49 S7        30.05F
HARRISBURG     PTSUNNY   85  67  54 SE5       30.04F
YORK           PTSUNNY   85  68  56 VRB3      30.06F
$$

PAZ038>040-043-044-047-048-054-055-060>062-067>071-271800-
EASTERN PENNSYLVANIA

CITY           SKY/WX    TMP DP  RH WIND       PRES   REMARKS
SCRANTON       MOSUNNY   85  64  49 W10       30.05F
MOUNT POCONO   CLOUDY    78  62  57 VRB3      30.10F
ALLENTOWN      MOSUNNY   87  67  51 SW5       30.05S
QUAKERTOWN*    MOSUNNY   86  68  54 SW8       30.07S
READING        MOSUNNY   86  66  51 MISG      30.05S
LANCASTER      MOSUNNY   83  66  56 VRB6      30.06S
COATESVILLE    SUNNY     84  64  51 VRB5      30.10R
POTTSTOWN      PTSUNNY   84  67  56 SW8       30.07S
BLUE BELL      MOSUNNY   84  66  54 SW5       30.05F
DOYLESTOWN     MOSUNNY   82  63  52 VRB5      30.05F
WILLOW GROVE   NOT AVBL
NORTH PHILA    SUNNY     87  67  51 SW10      30.06F
PHILADELPHIA   MOSUNNY   86  66  51 S9        30.06F
$$




USA.gov is the U.S. government's official web portal to all federal, state and local government web resources and services.